DW9313 Weather Reports


Display with metric or nautical units.
time (UTC)temp
F
wind
direction
speed
MPH
gust
MPH
rain 1hr
in
rain 24hr
in
rain mn
in
humidity
%
barometer
mb
20260902040228 61 147 6.0 12.0 0.08 0.31 0.30 97 1012.7
20260902035728 61 163 6.0 12.0 0.09 0.31 0.30 97 1012.7
20260902035229 61 153 6.0 13.0 0.08 0.29 0.28 97 1012.8
20260902034727 61 178 6.0 15.0 0.08 0.28 0.28 97 1012.9
20260902034228 61 151 5.0 10.0 0.08 0.28 0.27 97 1012.8
20260902033228 60 177 3.0 8.0 0.09 0.27 0.26 97 1013.2
20260902032728 60 165 5.0 9.0 0.09 0.26 0.25 97 1013.2
20260902032228 60 178 4.0 14.0 0.08 0.25 0.24 97 1013.4
20260902031730 60 159 6.0 12.0 0.09 0.25 0.24 97 1013.6
20260902031228 60 165 3.0 8.0 0.08 0.24 0.24 97 1013.6
20260902030728 60 185 2.0 6.0 0.08 0.24 0.23 96 1013.7
20260902030228 60 177 3.0 8.0 0.08 0.23 0.22 96 1013.8
20260902025729 60 179 2.0 6.0 0.08 0.22 0.21 96 1013.8
20260902025229 60 177 6.0 12.0 0.08 0.21 0.20 96 1013.9
20260902024728 60 177 3.0 10.0 0.08 0.20 0.20 97 1014.1
20260902023728 60 147 3.0 6.0 0.06 0.18 0.17 96 1014.1
20260902022728 60 136 1.0 3.0 0.06 0.17 0.17 96 1014.3
20260902022229 60 147 2.0 6.0 0.06 0.17 0.17 95 1014.3
20260902021729 60 169 3.0 6.0 0.05 0.17 0.16 95 1014.4
20260902021228 60 149 2.0 6.0 0.06 0.17 0.16 95 1014.5
20260902020728 60 159 3.0 6.0 0.05 0.16 0.15 95 1014.5
20260902020229 60 156 2.0 6.0 0.05 0.15 0.14 95 1014.6
20260902015729 61 166 3.0 6.0 0.04 0.14 0.13 95 1014.8
20260902015229 61 154 5.0 9.0 0.04 0.13 0.13 95 1014.9
20260902014730 61 165 2.0 5.0 0.03 0.13 0.12 96 1014.9
20260902013729 61 178 1.0 3.0 0.04 0.13 0.12 95 1015.1
20260902013228 61 134 1.0 8.0 0.05 0.13 0.12 96 1014.9
20260902012729 61 167 2.0 7.0 0.05 0.12 0.11 96 1015.0
20260902012228 61 171 2.0 6.0 0.05 0.12 0.11 95 1015.1
20260902011229 61 181 2.0 7.0 0.06 0.11 0.10 95 1015.3
20260902010229 61 200 3.0 6.0 0.06 0.10 0.09 95 1015.4
20260902005729 61 187 2.0 6.0 0.06 0.10 0.09 95 1015.4
20260902004731 61 178 5.0 10.0 0.07 0.09 0.09 95 1015.5
20260902004229 61 180 4.0 8.0 0.07 0.09 0.08 95 1015.6
20260902003729 61 168 3.0 9.0 0.08 0.09 0.08 95 1015.6
20260902003231 61 171 3.0 6.0 0.07 0.08 0.07 95 1015.6
20260902002730 61 141 1.0 5.0 0.06 0.07 0.06 95 1015.7
20260902002229 61 152 1.0 3.0 0.06 0.07 0.06 95 1015.8
20260902001729 61 152 1.0 3.0 0.06 0.06 0.06 95 1015.8
20260902001230 61 185 2.0 5.0 0.05 0.06 0.05 94 1015.9
20260902000745 61 168 2.0 7.0 0.05 0.06 0.05 94 1015.9
20260901235731 61 171 3.0 7.0 0.03 0.05 0.04 94 1015.9
20260901234731 61 177 1.0 6.0 0.02 0.03 0.02 93 1016.2
20260901234231 61 173 3.0 6.0 0.01 0.02 0.02 93 1016.3
20260901233729 61 169 3.0 6.0 0.00 0.02 0.01 93 1016.2
20260901232731 61 161 3.0 6.0 0.00 0.01 0.00 92 1016.3
20260901231730 61 151 1.0 3.0 0.00 0.01 0.00 91 1016.7
20260901230230 61 164 0.0 3.0 0.00 0.01 0.00 90 1016.8
20260901225731 61 153 0.0 1.0 0.00 0.01 0.01 90 1016.9
20260901225232 61 131 0.0 3.0 0.00 0.01 0.01 91 1016.8
20260901224230 61 137 1.0 2.0 0.00 0.01 0.01 90 1016.8
20260901223730 61 139 0.0 1.0 0.00 0.01 0.01 90 1016.9
20260901223231 61 137 0.0 1.0 0.00 0.01 0.01 90 1016.9
20260901222730 61 140 0.0 1.0 0.00 0.01 0.01 89 1017.0
20260901222230 61 136 0.0 0.0 0.00 0.01 0.01 89 1017.0
20260901221730 61 145 0.0 1.0 0.00 0.01 0.01 89 1017.0
20260901221232 61 266 0.0 0.0 0.00 0.01 0.01 89 1017.1
20260901220730 61 266 0.0 0.0 0.00 0.01 0.01 89 1017.0
20260901215731 61 266 0.0 0.0 0.00 0.01 0.01 88 1017.0
20260901215231 61 266 0.0 0.0 0.00 0.01 0.01 88 1017.1
20260901214732 61 266 0.0 0.0 0.00 0.01 0.01 88 1017.1
20260901214230 61 266 0.0 1.0 0.00 0.01 0.01 87 1017.1
20260901213731 62 317 0.0 2.0 0.00 0.01 0.01 87 1017.2
20260901213230 62 330 0.0 3.0 0.00 0.01 0.01 86 1017.3
20260901212731 61 309 1.0 3.0 0.00 0.01 0.01 86 1017.3
20260901211733 61 309 1.0 2.0 0.00 0.01 0.01 85 1017.2
20260901211231 61 300 1.0 2.0 0.00 0.01 0.01 86 1017.1
20260901210731 61 300 1.0 3.0 0.00 0.01 0.01 86 1017.1
20260901210232 61 295 2.0 6.0 0.00 0.01 0.01 86 1017.1
20260901205733 61 313 1.0 3.0 0.00 0.01 0.01 87 1017.1
20260901205232 61 315 0.0 3.0 0.00 0.01 0.01 87 1017.1
20260901204731 61 301 2.0 6.0 0.00 0.01 0.01 86 1017.2
20260901203730 61 320 1.0 5.0 0.00 0.01 0.01 87 1017.0
20260901203231 61 305 1.0 6.0 0.00 0.01 0.01 88 1016.9
20260901202732 61 325 0.0 3.0 0.00 0.01 0.01 90 1016.9
20260901202231 62 305 0.0 2.0 0.00 0.01 0.01 90 1016.9
20260901201732 62 313 1.0 3.0 0.00 0.01 0.01 91 1016.9
20260901201231 62 314 1.0 3.0 0.00 0.01 0.01 91 1017.0
20260901200731 62 290 2.0 7.0 0.00 0.01 0.01 91 1017.1
20260901200231 62 313 1.0 6.0 0.00 0.01 0.01 91 1016.9
20260901195732 62 291 1.0 5.0 0.00 0.01 0.01 91 1017.0
20260901195232 63 356 1.0 3.0 0.00 0.01 0.01 91 1017.0
20260901194231 63 231 1.0 3.0 0.00 0.01 0.01 91 1017.0
20260901193732 63 127 0.0 2.0 0.00 0.01 0.01 91 1016.9
20260901193231 63 175 1.0 2.0 0.00 0.01 0.01 91 1017.0
20260901192732 63 328 1.0 5.0 0.00 0.01 0.01 91 1017.0
20260901192232 63 291 1.0 3.0 0.00 0.01 0.01 91 1016.9
20260901191732 63 302 0.0 3.0 0.00 0.01 0.01 91 1016.8
20260901191231 63 313 1.0 2.0 0.00 0.01 0.01 91 1016.8
20260901190732 63 303 1.0 6.0 0.00 0.01 0.01 91 1016.9
20260901190233 63 299 1.0 7.0 0.00 0.01 0.01 91 1016.9
20260901185732 63 305 1.0 2.0 0.00 0.01 0.01 90 1016.8
20260901185232 63 334 0.0 2.0 0.00 0.01 0.01 90 1016.8
20260901184733 63 241 1.0 2.0 0.00 0.01 0.01 90 1016.8
20260901184232 63 300 1.0 3.0 0.00 0.01 0.01 89 1016.9
20260901183733 63 295 1.0 3.0 0.00 0.01 0.01 89 1016.9
20260901183232 63 296 0.0 5.0 0.00 0.01 0.01 89 1016.9
20260901182732 64 313 0.0 2.0 0.00 0.01 0.01 89 1017.0
20260901181232 64 310 0.0 5.0 0.00 0.01 0.01 88 1017.0
20260901180734 64 298 2.0 5.0 0.00 0.01 0.01 88 1017.0
20260901180232 64 297 1.0 5.0 0.00 0.01 0.01 88 1017.0
20260901175733 64 279 2.0 6.0 0.00 0.01 0.01 87 1017.0
20260901175232 64 293 2.0 6.0 0.00 0.01 0.01 87 1017.1
20260901174733 64 306 3.0 6.0 0.00 0.01 0.01 86 1017.1
20260901174233 64 303 3.0 6.0 0.00 0.01 0.01 85 1017.1
20260901173732 64 292 3.0 6.0 0.00 0.01 0.01 84 1017.1
20260901173232 64 292 1.0 5.0 0.00 0.01 0.01 83 1017.1
20260901172732 64 287 1.0 6.0 0.00 0.01 0.01 82 1017.1
20260901171734 64 286 4.0 8.0 0.00 0.01 0.01 81 1017.1
20260901170734 64 297 2.0 8.0 0.00 0.01 0.01 80 1017.0
20260901170233 64 300 1.0 7.0 0.00 0.01 0.01 80 1017.0
20260901165733 64 271 2.0 9.0 0.00 0.01 0.01 80 1016.9
20260901165233 64 9 1.0 6.0 0.00 0.01 0.01 80 1017.0
20260901164734 64 278 2.0 8.0 0.00 0.01 0.01 80 1017.0
20260901164234 64 307 2.0 6.0 0.00 0.01 0.01 80 1017.0
20260901163733 64 303 3.0 10.0 0.00 0.01 0.01 80 1017.0
20260901163233 64 293 3.0 8.0 0.00 0.01 0.01 79 1016.9
20260901162734 64 280 4.0 8.0 0.00 0.01 0.01 81 1017.0
20260901162234 64 276 3.0 9.0 0.00 0.01 0.01 85 1017.1
20260901161733 64 303 3.0 8.0 0.00 0.01 0.01 87 1017.1
20260901161233 64 281 3.0 9.0 0.00 0.01 0.01 87 1017.2
20260901160733 64 297 5.0 9.0 0.00 0.01 0.01 87 1017.1
20260901160233 65 318 2.0 12.0 0.00 0.01 0.01 87 1017.1
20260901155733 65 298 4.0 8.0 0.00 0.01 0.01 87 1017.2
20260901154733 65 306 3.0 12.0 0.00 0.01 0.01 86 1017.3
20260901154233 65 291 4.0 10.0 0.00 0.01 0.01 86 1017.1
20260901153735 65 302 4.0 7.0 0.00 0.01 0.01 86 1017.1
20260901153234 65 295 5.0 9.0 0.00 0.01 0.01 85 1017.1
20260901152735 65 285 3.0 6.0 0.00 0.01 0.01 83 1017.2
20260901152234 65 288 5.0 9.0 0.00 0.01 0.01 81 1017.3
20260901151734 65 320 3.0 8.0 0.00 0.01 0.01 79 1017.3
20260901150734 65 295 2.0 8.0 0.00 0.01 0.01 82 1017.4
20260901150233 65 298 4.0 10.0 0.00 0.01 0.01 83 1017.3
20260901145233 66 301 3.0 8.0 0.00 0.01 0.01 84 1017.6
20260901144235 66 298 4.0 12.0 0.00 0.01 0.01 83 1017.8
20260901143733 66 295 2.0 14.0 0.00 0.01 0.01 85 1017.8
20260901143234 65 301 5.0 14.0 0.00 0.01 0.01 86 1017.7
20260901142734 65 303 5.0 12.0 0.00 0.01 0.01 86 1017.8
20260901142234 65 295 5.0 12.0 0.00 0.01 0.01 86 1017.9
20260901141736 65 304 4.0 10.0 0.01 0.01 0.01 87 1017.8
20260901141234 65 301 4.0 9.0 0.01 0.01 0.01 88 1017.8
20260901140734 65 293 3.0 7.0 0.01 0.01 0.01 88 1017.9
20260901140234 64 285 3.0 8.0 0.01 0.01 0.01 88 1017.7
20260901135734 64 286 2.0 6.0 0.01 0.01 0.01 89 1017.7
20260901135234 64 35 2.0 6.0 0.01 0.01 0.01 90 1017.8
20260901134235 63 251 1.0 3.0 0.01 0.01 0.01 90 1017.8
20260901133734 63 309 2.0 6.0 0.01 0.01 0.01 90 1017.9
20260901133234 62 288 1.0 3.0 0.01 0.01 0.01 91 1018.0
20260901132235 62 289 1.0 3.0 0.01 0.01 0.01 88 1018.2
20260901131235 63 307 2.0 15.0 0.00 0.00 0.00 84 1018.3
20260901130735 65 295 9.0 17.0 0.00 0.00 0.00 81 1018.3
20260901130236 66 306 3.0 9.0 0.00 0.00 0.00 81 1018.2
20260901125235 66 299 4.0 16.0 0.00 0.00 0.00 79 1018.0
20260901124735 66 314 3.0 10.0 0.00 0.00 0.00 79 1017.9
20260901124235 66 291 6.0 14.0 0.00 0.00 0.00 78 1017.9
20260901123236 67 308 5.0 14.0 0.00 0.00 0.00 79 1017.8
20260901122735 67 288 5.0 13.0 0.00 0.00 0.00 79 1017.8
20260901122236 67 288 7.0 14.0 0.00 0.00 0.00 78 1017.8
20260901121735 67 331 6.0 13.0 0.00 0.00 0.00 77 1017.8
20260901120735 67 338 4.0 8.0 0.00 0.00 0.00 78 1017.8
20260901120236 67 300 3.0 12.0 0.00 0.00 0.00 80 1017.8
20260901115735 67 303 5.0 9.0 0.00 0.00 0.00 79 1017.8
20260901115235 66 291 5.0 16.0 0.00 0.00 0.00 80 1017.7
20260901114236 67 297 5.0 9.0 0.00 0.00 0.00 80 1017.8
20260901113735 66 292 5.0 10.0 0.00 0.00 0.00 80 1017.8
20260901113235 66 306 5.0 12.0 0.00 0.00 0.00 79 1017.8
20260901112735 67 325 1.0 13.0 0.00 0.00 0.00 79 1017.9
20260901112235 67 289 3.0 7.0 0.00 0.00 0.00 79 1017.8
20260901111237 67 197 2.0 7.0 0.00 0.00 0.00 79 1017.8
20260901110737 67 303 3.0 6.0 0.00 0.00 0.00 78 1017.8
20260901110236 67 293 2.0 6.0 0.00 0.00 0.00 78 1017.9
20260901105737 67 325 4.0 9.0 0.00 0.00 0.00 78 1017.9
20260901105237 67 333 2.0 6.0 0.00 0.00 0.00 78 1017.9
20260901104737 67 299 3.0 6.0 0.00 0.00 0.00 77 1018.0
20260901104237 67 299 3.0 7.0 0.00 0.00 0.00 78 1017.9
20260901103238 67 300 2.0 5.0 0.00 0.00 0.00 78 1017.8
20260901102736 67 317 2.0 7.0 0.00 0.00 0.00 78 1017.8
20260901101736 66 304 2.0 7.0 0.00 0.00 0.00 80 1017.9
20260901101236 66 270 3.0 8.0 0.00 0.00 0.00 79 1017.9
20260901100738 66 311 5.0 9.0 0.00 0.00 0.00 79 1017.9
20260901100237 67 295 3.0 12.0 0.00 0.00 0.00 79 1017.9
20260901095736 67 303 4.0 8.0 0.00 0.00 0.00 79 1017.9
20260901095236 67 244 2.0 6.0 0.00 0.00 0.00 80 1018.0
20260901094236 66 208 1.0 3.0 0.00 0.00 0.00 81 1017.8
20260901093736 66 310 3.0 6.0 0.00 0.00 0.00 81 1017.9
20260901093236 65 285 3.0 6.0 0.00 0.00 0.00 81 1017.8
20260901092738 65 289 2.0 6.0 0.00 0.00 0.00 82 1017.8
20260901092237 65 314 2.0 6.0 0.00 0.00 0.00 82 1017.8
20260901091736 65 300 1.0 7.0 0.00 0.00 0.00 82 1017.8
20260901091237 65 299 3.0 7.0 0.00 0.00 0.00 82 1017.8
20260901085738 65 299 3.0 6.0 0.00 0.00 0.00 82 1017.8
20260901085237 65 273 2.0 6.0 0.00 0.00 0.00 83 1017.8
20260901084738 65 258 1.0 5.0 0.00 0.00 0.00 83 1017.8
20260901084238 64 264 2.0 6.0 0.00 0.00 0.00 84 1017.8
20260901083237 64 300 2.0 5.0 0.00 0.00 0.00 85 1017.6
20260901082739 63 281 1.0 6.0 0.00 0.00 0.00 85 1017.5
20260901082237 63 298 1.0 3.0 0.00 0.00 0.00 86 1017.6
20260901081737 62 257 0.0 5.0 0.00 0.00 0.00 87 1017.6
20260901080738 62 292 2.0 6.0 0.00 0.00 0.00 88 1017.8
20260901080236 61 291 1.0 6.0 0.00 0.00 0.00 88 1017.9
20260901075737 61 290 1.0 3.0 0.00 0.00 0.00 89 1018.0
20260901075238 60 297 1.0 6.0 0.00 0.00 0.00 90 1017.9
20260901074237 60 290 2.0 5.0 0.00 0.00 0.00 90 1018.1
20260901073737 59 289 0.0 2.0 0.00 0.00 0.00 91 1018.1
20260901073237 59 284 0.0 2.0 0.00 0.00 0.00 91 1018.0
20260901072238 59 275 0.0 1.0 0.00 0.00 0.00 90 1017.9
20260901071737 59 138 0.0 0.0 0.00 0.00 0.00 91 1017.9
20260901071238 59 141 0.0 1.0 0.00 0.00 0.00 91 1018.0
20260901070738 58 109 0.0 0.0 0.00 0.00 0.00 92 1018.0
20260901065737 57 107 0.0 0.0 0.00 0.00 0.00 92 1017.9
20260901065238 57 107 0.0 0.0 0.00 0.00 0.00 92 1017.9
20260901064737 57 145 0.0 1.0 0.00 0.00 0.00 92 1017.9
20260901064239 56 112 0.0 0.0 0.00 0.00 0.00 92 1017.9
20260901063737 57 112 0.0 1.0 0.00 0.00 0.00 91 1018.0
20260901063238 57 127 0.0 0.0 0.00 0.00 0.00 92 1017.9
20260901062237 57 133 0.0 1.0 0.00 0.00 0.00 92 1018.0
20260901061738 57 24 0.0 1.0 0.00 0.00 0.00 91 1018.0
20260901061237 57 6 0.0 1.0 0.00 0.00 0.00 91 1018.0
20260901060738 57 6 0.0 1.0 0.00 0.00 0.00 91 1018.0
20260901060238 57 323 0.0 1.0 0.00 0.00 0.00 91 1018.0
20260901054740 57 311 0.0 2.0 0.00 0.00 0.00 91 1017.9
20260901054238 57 307 0.0 2.0 0.00 0.00 0.00 91 1017.9
20260901053739 57 307 0.0 1.0 0.00 0.00 0.00 91 1017.9
20260901053238 57 306 0.0 2.0 0.00 0.00 0.00 91 1017.8
20260901052238 57 285 0.0 1.0 0.00 0.00 0.00 91 1017.7
20260901051739 57 299 1.0 2.0 0.00 0.00 0.00 91 1017.7
20260901051239 57 297 1.0 2.0 0.00 0.00 0.00 91 1017.6
20260901050740 57 299 0.0 2.0 0.00 0.00 0.00 91 1017.7
20260901050239 56 297 0.0 2.0 0.00 0.00 0.00 91 1017.7
20260901045738 56 287 1.0 2.0 0.00 0.00 0.00 92 1017.8
20260901045238 56 326 0.0 2.0 0.00 0.00 0.00 92 1017.7
20260901044739 56 286 0.0 1.0 0.00 0.00 0.00 91 1017.7
20260901044238 55 285 0.0 2.0 0.00 0.00 0.00 91 1017.7
20260901043739 55 276 0.0 2.0 0.00 0.00 0.00 91 1017.7
20260901042739 56 285 0.0 1.0 0.00 0.00 0.00 90 1017.7
20260901042240 56 287 0.0 1.0 0.00 0.00 0.00 91 1017.7
20260901041740 56 311 0.0 0.0 0.00 0.00 0.00 90 1017.7
20260901041239 56 311 0.0 0.0 0.00 0.00 0.00 90 1017.7
20260901040740 56 311 0.0 0.0 0.00 0.00 0.00 90 1017.7